Regional Weather Roundup
Issued by NWS

Home | Current Version | Previous Version | Text Only | Print | Product List | Glossary Off
Versions: 1 2 3 4 5 6 7 8 9 10 11 12 13 14 15 16 17 18 19 20 21 22 23 24 25 26 27 28 29 30 31 32 33 34 35 36 37 38 39 40 41 42 43 44

860
ASUS44 KJAN 050110
RWRMS

MISSISSIPPI HOURLY WEATHER ROUNDUP
NATIONAL WEATHER SERVICE JACKSON MS
700 PM CST WED MAR 04 2015

NOTE: "FAIR: INDICATES FEW OR NO CLOUDS BELOW 12,000 FEET WITH NO
SIGNIFICANT WEATHER AND/OR OBSTRUCTIONS TO VISIBILITY.

MSZ001>002-007>008-010>013-018>021-025>028-034>036-050200-
NORTHWEST MISSISSIPPI

CITY           SKY/WX    TMP DP  RH WIND       PRES   REMARKS
CLARKSDALE     CLOUDY    32  32 100 N22G29    30.07F WCI  19
CLEVELAND      CLOUDY    34  33  97 N25G37    30.04R WCI  21
GREENWOOD      CLOUDY    42  38  85 N12       29.99R
GREENVILLE     CLOUDY    36  31  82 N25G35    30.03R WCI  24
OLIVE BRANCH   RAIN      30  30 100 N14G25    30.11R FOG     WCI  20
OXFORD         CLOUDY    34  32  93 N17G24    30.04R WCI  23
TUNICA         MIX PCPN  32  32 100 N15G22    30.11S WCI  22
$$

MSZ003>006-009-014>017-022>024-029>033-037>039-050200-
NORTHEAST MISSISSIPPI

CITY           SKY/WX    TMP DP  RH WIND       PRES   REMARKS
COLUMBUS AFB   DRIZZLE   48  45  87 N17       29.93R
CORINTH        LGT RAIN  37  34  87 N16       30.05R WCI  28
GOLDN TRIANGLE CLOUDY    48  45  87 N14G21    29.93R
STARKVILLE     RAIN      46  45  93 N9G18     29.95R
TUPELO         CLOUDY    40  36  86 NE18G28   30.01R WCI  31
$$

MSZ040-058-050200-
CENTRAL MISSISSIPPI

CITY           SKY/WX    TMP DP  RH WIND       PRES   REMARKS
JACKSON INTL   CLOUDY    62  53  72 N20       29.88R
JACKSON HAWKNS CLOUDY    57  50  77 NW14      29.89R
MERIDIAN KEY   PTCLDY    71  66  84 S9        29.88R
MERIDIAN NAS   MOCLDY    72  66  81 S6        29.88R
VICKSBURG      RAIN      45  41  86 N16G28    29.94R
$$

MSZ059>079-050200-
SOUTH MISSISSIPPI

CITY           SKY/WX    TMP DP  RH WIND       PRES   REMARKS
BROOKHAVEN     FAIR      75  70  83 S3        29.88R
HATTIESBURG    MOCLDY    74  69  85 S10       29.90R
MCCOMB         MOCLDY    72  65  78 S5        29.88R
NATCHEZ        NOT AVBL
PINE BELT      CLEAR     72  66  83 S9        29.90S
$$

MSZ080>082-050200-
COASTAL MISSISSIPPI

CITY           SKY/WX    TMP DP  RH WIND       PRES   REMARKS
BAY ST LOUIS   PTCLDY    70  64  83 S7        29.91S
BILOXI         CLOUDY    67  67 100 S6        29.92S
PASCAGOULA     CLOUDY    72  69  90 S7        29.93S
GULFPORT       CLOUDY    68  67  96 S6        29.92S FOG
$$



USA.gov is the U.S. government's official web portal to all federal, state and local government web resources and services.